| time (UTC) | temp C | wind direction | speed KPH | gust KPH | rain 1hr cm | rain 24hr cm | rain mn cm | humidity % | barometer mb |
| 20260510081828 | 4 | 274 | 0.0 | 0.0 | 0.00 | 0.00 | 0.00 | 97 | 1013.0 |
| 20260510081330 | 4 | 274 | 0.0 | 0.0 | 0.00 | 0.00 | 0.00 | 98 | 1012.9 |
| 20260510080811 | 4 | 289 | 0.0 | 0.0 | 0.00 | 0.00 | 0.00 | 97 | 1012.9 |
| 20260510080313 | 4 | 249 | 0.0 | 0.0 | 0.00 | 0.00 | 0.00 | 98 | 1012.9 |
| 20260510075829 | 4 | 257 | 0.0 | 1.6 | 0.00 | 0.00 | 0.00 | 98 | 1012.9 |
| 20260510075310 | 3 | 290 | 0.0 | 1.6 | 0.00 | 0.00 | 0.00 | 97 | 1012.9 |
| 20260510074832 | 3 | 205 | 0.0 | 0.0 | 0.00 | 0.00 | 0.00 | 97 | 1012.9 |
| 20260510074312 | 3 | 205 | 0.0 | 0.0 | 0.00 | 0.00 | 0.00 | 97 | 1012.8 |
| 20260510073812 | 3 | 99 | 0.0 | 0.0 | 0.00 | 0.00 | 0.00 | 97 | 1012.7 |
| 20260510073337 | 3 | 82 | 0.0 | 0.0 | 0.00 | 0.00 | 0.00 | 97 | 1012.8 |
| 20260510072818 | 3 | 85 | 0.0 | 0.0 | 0.00 | 0.00 | 0.00 | 97 | 1012.7 |
| 20260510072321 | 3 | 85 | 0.0 | 0.0 | 0.00 | 0.00 | 0.00 | 96 | 1012.7 |
| 20260510071822 | 4 | 85 | 0.0 | 0.0 | 0.00 | 0.00 | 0.00 | 96 | 1012.6 |
| 20260510071323 | 4 | 85 | 0.0 | 0.0 | 0.00 | 0.00 | 0.00 | 96 | 1012.6 |
| 20260510070825 | 4 | 100 | 0.0 | 0.0 | 0.00 | 0.00 | 0.00 | 96 | 1012.5 |
| 20260510070328 | 4 | 91 | 0.0 | 0.0 | 0.00 | 0.00 | 0.00 | 95 | 1012.3 |
| 20260510065827 | 4 | 91 | 0.0 | 0.0 | 0.00 | 0.00 | 0.00 | 95 | 1012.3 |
| 20260510065349 | 4 | 91 | 0.0 | 0.0 | 0.00 | 0.00 | 0.00 | 95 | 1012.3 |
| 20260510064829 | 4 | 90 | 0.0 | 0.0 | 0.00 | 0.00 | 0.00 | 95 | 1012.3 |
| 20260510064309 | 5 | 276 | 0.0 | 0.0 | 0.00 | 0.00 | 0.00 | 96 | 1012.2 |
| 20260510063811 | 5 | 276 | 0.0 | 0.0 | 0.00 | 0.00 | 0.00 | 95 | 1012.2 |
| 20260510063315 | 5 | 276 | 0.0 | 0.0 | 0.00 | 0.00 | 0.00 | 96 | 1012.2 |
| 20260510062816 | 5 | 276 | 0.0 | 0.0 | 0.00 | 0.00 | 0.00 | 96 | 1012.3 |
| 20260510062319 | 5 | 276 | 0.0 | 0.0 | 0.00 | 0.00 | 0.00 | 95 | 1012.3 |
| 20260510061822 | 5 | 276 | 0.0 | 0.0 | 0.00 | 0.00 | 0.00 | 96 | 1012.3 |
| 20260510061322 | 5 | 275 | 0.0 | 0.0 | 0.00 | 0.00 | 0.00 | 95 | 1012.2 |
| 20260510060825 | 5 | 276 | 0.0 | 0.0 | 0.00 | 0.00 | 0.00 | 95 | 1012.2 |
| 20260510060326 | 5 | 354 | 0.0 | 0.0 | 0.00 | 0.00 | 0.00 | 95 | 1012.2 |
| 20260510055826 | 5 | 354 | 0.0 | 0.0 | 0.00 | 0.00 | 0.00 | 95 | 1012.1 |
| 20260510055321 | 5 | 355 | 0.0 | 0.0 | 0.00 | 0.00 | 0.00 | 93 | 1012.0 |
| 20260510054841 | 5 | 355 | 0.0 | 0.0 | 0.00 | 0.00 | 0.00 | 93 | 1012.0 |
| 20260510054320 | 5 | 356 | 0.0 | 0.0 | 0.00 | 0.00 | 0.00 | 93 | 1012.0 |
| 20260510053841 | 6 | 355 | 0.0 | 0.0 | 0.00 | 0.00 | 0.00 | 92 | 1012.1 |
| 20260510053341 | 6 | 355 | 0.0 | 0.0 | 0.00 | 0.00 | 0.00 | 91 | 1012.2 |
| 20260510052823 | 6 | 355 | 0.0 | 0.0 | 0.00 | 0.00 | 0.00 | 91 | 1012.1 |
| 20260510052323 | 6 | 355 | 0.0 | 0.0 | 0.00 | 0.00 | 0.00 | 90 | 1012.2 |
| 20260510051826 | 7 | 246 | 0.0 | 0.0 | 0.00 | 0.00 | 0.00 | 90 | 1012.3 |
| 20260510051329 | 7 | 247 | 0.0 | 0.0 | 0.00 | 0.00 | 0.00 | 90 | 1012.4 |
| 20260510050829 | 7 | 134 | 0.0 | 3.2 | 0.00 | 0.00 | 0.00 | 89 | 1012.4 |
| 20260510050310 | 7 | 276 | 1.6 | 6.4 | 0.00 | 0.00 | 0.00 | 90 | 1012.4 |
| 20260510045841 | 7 | 257 | 1.6 | 6.4 | 0.00 | 0.00 | 0.00 | 90 | 1012.4 |
| 20260510045322 | 7 | 265 | 1.6 | 3.2 | 0.00 | 0.00 | 0.00 | 90 | 1012.4 |
| 20260510044824 | 7 | 296 | 1.6 | 3.2 | 0.00 | 0.00 | 0.00 | 90 | 1012.5 |
| 20260510044310 | 7 | 270 | 1.6 | 3.2 | 0.00 | 0.00 | 0.00 | 90 | 1012.5 |
| 20260510043829 | 7 | 285 | 1.6 | 6.4 | 0.00 | 0.00 | 0.00 | 89 | 1012.6 |
| 20260510043349 | 7 | 265 | 1.6 | 6.4 | 0.00 | 0.00 | 0.00 | 90 | 1012.6 |
| 20260510042830 | 7 | 266 | 0.0 | 0.0 | 0.00 | 0.00 | 0.00 | 90 | 1012.6 |
| 20260510042313 | 7 | 285 | 0.0 | 0.0 | 0.00 | 0.00 | 0.00 | 89 | 1012.7 |
| 20260510041815 | 7 | 264 | 0.0 | 0.0 | 0.00 | 0.00 | 0.00 | 88 | 1012.7 |
| 20260510041318 | 8 | 264 | 0.0 | 0.0 | 0.00 | 0.00 | 0.00 | 87 | 1012.7 |
| 20260510040821 | 8 | 264 | 0.0 | 3.2 | 0.00 | 0.00 | 0.00 | 87 | 1012.6 |
| 20260510040341 | 8 | 291 | 1.6 | 4.8 | 0.00 | 0.00 | 0.00 | 87 | 1012.6 |
| 20260510035833 | 8 | 277 | 1.6 | 4.8 | 0.00 | 0.00 | 0.00 | 87 | 1012.4 |
| 20260510035313 | 8 | 266 | 0.0 | 0.0 | 0.00 | 0.00 | 0.00 | 87 | 1012.4 |
| 20260510034835 | 8 | 261 | 0.0 | 0.0 | 0.00 | 0.00 | 0.00 | 87 | 1012.4 |
| 20260510033850 | 8 | 274 | 0.0 | 0.0 | 0.00 | 0.00 | 0.00 | 86 | 1012.5 |
| 20260510033311 | 8 | 288 | 0.0 | 0.0 | 0.00 | 0.00 | 0.00 | 85 | 1012.5 |
| 20260510032813 | 8 | 219 | 0.0 | 0.0 | 0.00 | 0.00 | 0.00 | 86 | 1012.6 |
| 20260510032315 | 8 | 205 | 0.0 | 0.0 | 0.00 | 0.00 | 0.00 | 85 | 1012.5 |
| 20260510031817 | 8 | 277 | 0.0 | 0.0 | 0.00 | 0.00 | 0.00 | 85 | 1012.5 |
| 20260510031318 | 9 | 297 | 0.0 | 0.0 | 0.00 | 0.00 | 0.00 | 84 | 1012.4 |
| 20260510030842 | 9 | 269 | 0.0 | 0.0 | 0.00 | 0.00 | 0.00 | 84 | 1012.4 |
| 20260510030324 | 9 | 269 | 0.0 | 0.0 | 0.00 | 0.00 | 0.00 | 83 | 1012.4 |
| 20260510025822 | 10 | 270 | 0.0 | 3.2 | 0.00 | 0.00 | 0.00 | 83 | 1012.3 |
| 20260510025322 | 10 | 284 | 1.6 | 4.8 | 0.00 | 0.00 | 0.00 | 82 | 1012.2 |
| 20260510024825 | 10 | 274 | 0.0 | 4.8 | 0.00 | 0.00 | 0.00 | 82 | 1012.0 |
| 20260510024325 | 10 | 276 | 1.6 | 1.6 | 0.00 | 0.00 | 0.00 | 82 | 1012.0 |
| 20260510023828 | 10 | 283 | 1.6 | 4.8 | 0.00 | 0.00 | 0.00 | 81 | 1011.9 |
| 20260510023350 | 10 | 260 | 1.6 | 4.8 | 0.00 | 0.00 | 0.00 | 81 | 1011.8 |
| 20260510022830 | 10 | 277 | 1.6 | 4.8 | 0.00 | 0.00 | 0.00 | 82 | 1011.8 |
| 20260510022312 | 10 | 283 | 0.0 | 4.8 | 0.00 | 0.00 | 0.00 | 81 | 1011.7 |
| 20260510021815 | 10 | 271 | 0.0 | 3.2 | 0.00 | 0.00 | 0.00 | 80 | 1011.6 |
| 20260510021316 | 10 | 280 | 0.0 | 3.2 | 0.00 | 0.00 | 0.00 | 80 | 1011.6 |
| 20260510020818 | 10 | 283 | 0.0 | 3.2 | 0.00 | 0.00 | 0.00 | 80 | 1011.6 |
| 20260510020320 | 10 | 255 | 1.6 | 3.2 | 0.00 | 0.00 | 0.00 | 80 | 1011.4 |
| 20260510015820 | 10 | 252 | 0.0 | 3.2 | 0.00 | 0.00 | 0.00 | 79 | 1011.3 |
| 20260510015323 | 11 | 299 | 0.0 | 3.2 | 0.00 | 0.00 | 0.00 | 78 | 1011.2 |
| 20260510014805 | 11 | 272 | 1.6 | 3.2 | 0.00 | 0.00 | 0.00 | 78 | 1011.1 |
| 20260510014306 | 11 | 283 | 1.6 | 3.2 | 0.00 | 0.00 | 0.00 | 78 | 1011.0 |
| 20260510013808 | 11 | 265 | 1.6 | 3.2 | 0.00 | 0.00 | 0.00 | 77 | 1010.9 |
| 20260510013310 | 11 | 286 | 1.6 | 4.8 | 0.00 | 0.00 | 0.00 | 75 | 1010.7 |
| 20260510012811 | 11 | 274 | 1.6 | 4.8 | 0.00 | 0.00 | 0.00 | 76 | 1010.7 |
| 20260510012314 | 11 | 270 | 1.6 | 4.8 | 0.00 | 0.00 | 0.00 | 76 | 1010.6 |
| 20260510011815 | 12 | 283 | 1.6 | 3.2 | 0.00 | 0.00 | 0.00 | 75 | 1010.6 |
| 20260510011336 | 12 | 271 | 1.6 | 3.2 | 0.00 | 0.00 | 0.00 | 73 | 1010.5 |
| 20260510010818 | 12 | 260 | 1.6 | 3.2 | 0.00 | 0.00 | 0.00 | 72 | 1010.4 |
| 20260510010321 | 12 | 268 | 1.6 | 3.2 | 0.00 | 0.00 | 0.00 | 71 | 1010.5 |
| 20260510005816 | 13 | 277 | 1.6 | 3.2 | 0.00 | 0.00 | 0.00 | 69 | 1010.4 |
| 20260510005318 | 13 | 258 | 1.6 | 4.8 | 0.00 | 0.00 | 0.00 | 68 | 1010.3 |
| 20260510004820 | 13 | 262 | 1.6 | 4.8 | 0.00 | 0.00 | 0.00 | 67 | 1010.3 |
| 20260510004314 | 13 | 260 | 1.6 | 4.8 | 0.00 | 0.00 | 0.00 | 66 | 1010.2 |
| 20260510003816 | 14 | 288 | 1.6 | 4.8 | 0.00 | 0.00 | 0.00 | 65 | 1010.1 |
| 20260510003317 | 15 | 284 | 1.6 | 4.8 | 0.00 | 0.00 | 0.00 | 63 | 1010.0 |
| 20260510002838 | 15 | 264 | 1.6 | 4.8 | 0.00 | 0.00 | 0.00 | 61 | 1009.9 |
| 20260510002321 | 16 | 259 | 1.6 | 3.2 | 0.00 | 0.00 | 0.00 | 59 | 1009.7 |
| 20260510001822 | 16 | 283 | 0.0 | 3.2 | 0.00 | 0.00 | 0.00 | 56 | 1009.7 |
| 20260510001324 | 17 | 285 | 1.6 | 3.2 | 0.00 | 0.00 | 0.00 | 53 | 1009.5 |
| 20260510000807 | 18 | 268 | 0.0 | 4.8 | 0.00 | 0.00 | 0.00 | 50 | 1009.4 |
| 20260510000311 | 18 | 255 | 1.6 | 8.0 | 0.00 | 0.00 | 0.00 | 47 | 1009.3 |
| 20260509235810 | 19 | 238 | 4.8 | 11.3 | 0.00 | 0.00 | 0.00 | 46 | 1009.2 |
| 20260509235312 | 19 | 252 | 3.2 | 12.9 | 0.00 | 0.00 | 0.00 | 45 | 1009.1 |
| 20260509234813 | 19 | 262 | 4.8 | 11.3 | 0.00 | 0.00 | 0.00 | 45 | 1009.0 |
| 20260509234311 | 20 | 242 | 4.8 | 9.7 | 0.00 | 0.00 | 0.00 | 45 | 1009.0 |
| 20260509233812 | 20 | 250 | 6.4 | 9.7 | 0.00 | 0.00 | 0.00 | 43 | 1008.9 |
| 20260509233315 | 20 | 255 | 4.8 | 12.9 | 0.00 | 0.00 | 0.00 | 43 | 1008.9 |
| 20260509232835 | 20 | 281 | 6.4 | 17.7 | 0.00 | 0.00 | 0.00 | 43 | 1008.9 |
| 20260509232316 | 21 | 271 | 8.0 | 16.1 | 0.00 | 0.00 | 0.00 | 42 | 1009.0 |
| 20260509231820 | 21 | 268 | 6.4 | 14.5 | 0.00 | 0.00 | 0.00 | 41 | 1009.0 |
| 20260509231340 | 21 | 288 | 8.0 | 14.5 | 0.00 | 0.00 | 0.00 | 41 | 1008.9 |
| 20260509230821 | 21 | 246 | 8.0 | 12.9 | 0.00 | 0.00 | 0.00 | 41 | 1009.0 |
| 20260509230323 | 22 | 293 | 4.8 | 14.5 | 0.00 | 0.00 | 0.00 | 42 | 1008.9 |
| 20260509225843 | 22 | 265 | 8.0 | 14.5 | 0.00 | 0.00 | 0.00 | 41 | 1008.9 |
| 20260509225323 | 22 | 269 | 4.8 | 12.9 | 0.00 | 0.00 | 0.00 | 42 | 1008.8 |
| 20260509224822 | 22 | 257 | 4.8 | 16.1 | 0.00 | 0.00 | 0.00 | 42 | 1008.8 |
| 20260509224343 | 21 | 259 | 8.0 | 16.1 | 0.00 | 0.00 | 0.00 | 42 | 1008.8 |
| 20260509223825 | 21 | 271 | 4.8 | 14.5 | 0.00 | 0.00 | 0.00 | 43 | 1008.9 |
| 20260509223307 | 21 | 226 | 9.7 | 14.5 | 0.00 | 0.00 | 0.00 | 43 | 1008.8 |
| 20260509222828 | 22 | 281 | 8.0 | 17.7 | 0.00 | 0.00 | 0.00 | 43 | 1008.8 |
| 20260509222309 | 22 | 257 | 8.0 | 17.7 | 0.00 | 0.00 | 0.00 | 44 | 1008.9 |
| 20260509221827 | 21 | 283 | 8.0 | 14.5 | 0.00 | 0.00 | 0.00 | 44 | 1008.8 |
| 20260509221308 | 22 | 249 | 6.4 | 16.1 | 0.00 | 0.00 | 0.00 | 44 | 1008.8 |
| 20260509220809 | 22 | 266 | 4.8 | 16.1 | 0.00 | 0.00 | 0.00 | 45 | 1008.8 |
| 20260509220332 | 22 | 252 | 8.0 | 16.1 | 0.00 | 0.00 | 0.00 | 43 | 1008.7 |
| 20260509215807 | 23 | 247 | 4.8 | 11.3 | 0.00 | 0.00 | 0.00 | 43 | 1008.6 |
| 20260509215307 | 23 | 251 | 3.2 | 9.7 | 0.00 | 0.00 | 0.00 | 44 | 1008.6 |
| 20260509214810 | 22 | 248 | 6.4 | 11.3 | 0.00 | 0.00 | 0.00 | 43 | 1008.6 |
| 20260509214332 | 22 | 242 | 4.8 | 14.5 | 0.00 | 0.00 | 0.00 | 44 | 1008.6 |
| 20260509213811 | 22 | 283 | 8.0 | 20.9 | 0.00 | 0.00 | 0.00 | 44 | 1008.5 |
| 20260509213313 | 22 | 259 | 6.4 | 20.9 | 0.00 | 0.00 | 0.00 | 44 | 1008.5 |
| 20260509212816 | 22 | 231 | 9.7 | 22.5 | 0.00 | 0.00 | 0.00 | 43 | 1008.5 |
| 20260509212338 | 22 | 235 | 12.9 | 22.5 | 0.00 | 0.00 | 0.00 | 42 | 1008.4 |
| 20260509211840 | 22 | 225 | 6.4 | 14.5 | 0.00 | 0.00 | 0.00 | 43 | 1008.3 |
| 20260509211321 | 22 | 94 | 4.8 | 19.3 | 0.00 | 0.00 | 0.00 | 44 | 1008.4 |
| 20260509210824 | 22 | 260 | 8.0 | 19.3 | 0.00 | 0.00 | 0.00 | 42 | 1008.3 |
| 20260509210325 | 22 | 257 | 8.0 | 17.7 | 0.00 | 0.00 | 0.00 | 44 | 1008.3 |
| 20260509205807 | 22 | 290 | 9.7 | 20.9 | 0.00 | 0.00 | 0.00 | 43 | 1008.2 |
| 20260509205309 | 22 | 259 | 12.9 | 20.9 | 0.00 | 0.00 | 0.00 | 42 | 1008.2 |
| 20260509204811 | 22 | 236 | 4.8 | 16.1 | 0.00 | 0.00 | 0.00 | 44 | 1008.2 |
| 20260509204312 | 22 | 264 | 9.7 | 16.1 | 0.00 | 0.00 | 0.00 | 44 | 1008.3 |
| 20260509203816 | 22 | 270 | 1.6 | 22.5 | 0.00 | 0.00 | 0.00 | 45 | 1008.2 |
| 20260509203318 | 22 | 220 | 9.7 | 22.5 | 0.00 | 0.00 | 0.00 | 45 | 1008.2 |
| 20260509202820 | 22 | 277 | 8.0 | 14.5 | 0.00 | 0.00 | 0.00 | 45 | 1008.1 |
| 20260509202323 | 22 | 255 | 6.4 | 22.5 | 0.00 | 0.00 | 0.00 | 44 | 1008.0 |
| 20260509201846 | 22 | 226 | 9.7 | 22.5 | 0.00 | 0.00 | 0.00 | 44 | 1008.0 |
| 20260509201307 | 22 | 306 | 4.8 | 12.9 | 0.00 | 0.00 | 0.00 | 45 | 1008.0 |
| 20260509200829 | 22 | 242 | 1.6 | 12.9 | 0.00 | 0.00 | 0.00 | 47 | 1007.9 |
| 20260509200309 | 21 | 210 | 4.8 | 19.3 | 0.00 | 0.00 | 0.00 | 45 | 1008.0 |
| 20260509195810 | 21 | 134 | 3.2 | 19.3 | 0.00 | 0.00 | 0.00 | 47 | 1008.0 |
| 20260509195311 | 21 | 234 | 4.8 | 20.9 | 0.00 | 0.00 | 0.00 | 46 | 1008.0 |
| 20260509194814 | 21 | 241 | 9.7 | 20.9 | 0.00 | 0.00 | 0.00 | 45 | 1008.2 |
| 20260509194337 | 21 | 293 | 6.4 | 20.9 | 0.00 | 0.00 | 0.00 | 47 | 1008.1 |
| 20260509193816 | 21 | 281 | 6.4 | 12.9 | 0.00 | 0.00 | 0.00 | 47 | 1008.1 |
| 20260509193339 | 21 | 260 | 6.4 | 19.3 | 0.00 | 0.00 | 0.00 | 47 | 1008.2 |
| 20260509192819 | 21 | 209 | 6.4 | 11.3 | 0.00 | 0.00 | 0.00 | 44 | 1008.2 |
| 20260509192323 | 22 | 224 | 6.4 | 24.1 | 0.00 | 0.00 | 0.00 | 43 | 1008.4 |
| 20260509191824 | 22 | 132 | 9.7 | 24.1 | 0.00 | 0.00 | 0.00 | 42 | 1008.4 |
| 20260509191306 | 22 | 283 | 6.4 | 17.7 | 0.00 | 0.00 | 0.00 | 46 | 1008.4 |
| 20260509190828 | 21 | 207 | 9.7 | 17.7 | 0.00 | 0.00 | 0.00 | 42 | 1008.6 |
| 20260509190309 | 22 | 259 | 6.4 | 14.5 | 0.00 | 0.00 | 0.00 | 44 | 1008.6 |
| 20260509185807 | 22 | 270 | 4.8 | 24.1 | 0.00 | 0.00 | 0.00 | 45 | 1008.6 |
| 20260509185329 | 22 | 129 | 9.7 | 24.1 | 0.00 | 0.00 | 0.00 | 45 | 1008.6 |
| 20260509184809 | 21 | 248 | 4.8 | 14.5 | 0.00 | 0.00 | 0.00 | 45 | 1008.6 |
| 20260509184311 | 21 | 264 | 8.0 | 14.5 | 0.00 | 0.00 | 0.00 | 46 | 1008.7 |
| 20260509183813 | 21 | 269 | 6.4 | 14.5 | 0.00 | 0.00 | 0.00 | 49 | 1008.8 |
| 20260509183316 | 22 | 134 | 8.0 | 14.5 | 0.00 | 0.00 | 0.00 | 46 | 1008.8 |
| 20260509182817 | 21 | 224 | 3.2 | 12.9 | 0.00 | 0.00 | 0.00 | 44 | 1008.8 |
| 20260509182318 | 21 | 198 | 6.4 | 16.1 | 0.00 | 0.00 | 0.00 | 46 | 1008.9 |
| 20260509181819 | 21 | 250 | 8.0 | 20.9 | 0.00 | 0.00 | 0.00 | 44 | 1009.0 |
| 20260509181343 | 21 | 255 | 12.9 | 20.9 | 0.00 | 0.00 | 0.00 | 45 | 1009.1 |
| 20260509180824 | 21 | 77 | 8.0 | 19.3 | 0.00 | 0.00 | 0.00 | 47 | 1008.9 |
| 20260509180324 | 21 | 25 | 12.9 | 19.3 | 0.00 | 0.00 | 0.00 | 45 | 1009.0 |
| 20260509175823 | 21 | 275 | 6.4 | 19.3 | 0.00 | 0.00 | 0.00 | 46 | 1009.0 |
| 20260509175325 | 21 | 243 | 4.8 | 17.7 | 0.00 | 0.00 | 0.00 | 48 | 1009.1 |
| 20260509174824 | 20 | 255 | 3.2 | 12.9 | 0.00 | 0.00 | 0.00 | 48 | 1009.1 |
| 20260509174326 | 20 | 243 | 4.8 | 12.9 | 0.00 | 0.00 | 0.00 | 47 | 1009.2 |
| 20260509173809 | 20 | 206 | 8.0 | 14.5 | 0.00 | 0.00 | 0.00 | 48 | 1009.2 |
| 20260509173311 | 20 | 107 | 4.8 | 9.7 | 0.00 | 0.00 | 0.00 | 50 | 1009.2 |
| 20260509172813 | 20 | 232 | 3.2 | 16.1 | 0.00 | 0.00 | 0.00 | 51 | 1009.3 |
| 20260509172315 | 20 | 240 | 9.7 | 16.1 | 0.00 | 0.00 | 0.00 | 49 | 1009.5 |
| 20260509171816 | 20 | 278 | 3.2 | 8.0 | 0.00 | 0.00 | 0.00 | 52 | 1009.5 |
| 20260509171337 | 19 | 238 | 4.8 | 11.3 | 0.00 | 0.00 | 0.00 | 52 | 1009.6 |
| 20260509170818 | 19 | 265 | 6.4 | 12.9 | 0.00 | 0.00 | 0.00 | 51 | 1009.7 |
| 20260509170321 | 19 | 230 | 8.0 | 19.3 | 0.00 | 0.00 | 0.00 | 53 | 1009.8 |
| 20260509165819 | 19 | 239 | 8.0 | 19.3 | 0.00 | 0.00 | 0.00 | 54 | 1009.9 |
| 20260509165320 | 19 | 113 | 3.2 | 6.4 | 0.00 | 0.00 | 0.00 | 54 | 1009.8 |
| 20260509164821 | 19 | 208 | 1.6 | 12.9 | 0.00 | 0.00 | 0.00 | 54 | 1009.7 |
| 20260509164323 | 19 | 224 | 3.2 | 11.3 | 0.00 | 0.00 | 0.00 | 56 | 1009.7 |
| 20260509163825 | 18 | 166 | 3.2 | 14.5 | 0.00 | 0.00 | 0.00 | 55 | 1009.7 |
| 20260509163307 | 19 | 264 | 3.2 | 14.5 | 0.00 | 0.00 | 0.00 | 53 | 1009.7 |
| 20260509162810 | 19 | 114 | 6.4 | 11.3 | 0.00 | 0.00 | 0.00 | 53 | 1009.7 |
| 20260509162312 | 19 | 274 | 4.8 | 11.3 | 0.00 | 0.00 | 0.00 | 52 | 1009.7 |
| 20260509161813 | 19 | 191 | 4.8 | 16.1 | 0.00 | 0.00 | 0.00 | 54 | 1009.8 |
| 20260509161315 | 18 | 165 | 8.0 | 19.3 | 0.00 | 0.00 | 0.00 | 55 | 1009.9 |
| 20260509160816 | 18 | 265 | 9.7 | 19.3 | 0.00 | 0.00 | 0.00 | 55 | 1009.9 |
| 20260509160318 | 19 | 257 | 6.4 | 14.5 | 0.00 | 0.00 | 0.00 | 56 | 1009.9 |
| 20260509155816 | 18 | 273 | 6.4 | 14.5 | 0.00 | 0.00 | 0.00 | 57 | 1009.8 |
| 20260509155316 | 18 | 275 | 8.0 | 14.5 | 0.00 | 0.00 | 0.00 | 60 | 1009.9 |
| 20260509154818 | 18 | 210 | 6.4 | 14.5 | 0.00 | 0.00 | 0.00 | 57 | 1010.0 |
| 20260509154338 | 18 | 242 | 3.2 | 9.7 | 0.00 | 0.00 | 0.00 | 60 | 1010.2 |
| 20260509153839 | 18 | 233 | 4.8 | 17.7 | 0.00 | 0.00 | 0.00 | 60 | 1010.2 |
| 20260509153319 | 17 | 188 | 9.7 | 17.7 | 0.00 | 0.00 | 0.00 | 61 | 1010.1 |
| 20260509152839 | 17 | 248 | 6.4 | 17.7 | 0.00 | 0.00 | 0.00 | 60 | 1010.2 |
| 20260509152321 | 17 | 261 | 9.7 | 20.9 | 0.00 | 0.00 | 0.00 | 60 | 1010.2 |
| 20260509151821 | 17 | 226 | 9.7 | 20.9 | 0.00 | 0.00 | 0.00 | 61 | 1010.1 |
| 20260509151324 | 17 | 211 | 3.2 | 17.7 | 0.00 | 0.00 | 0.00 | 62 | 1010.1 |
| 20260509150808 | 17 | 191 | 4.8 | 14.5 | 0.00 | 0.00 | 0.00 | 61 | 1010.1 |
| 20260509150308 | 17 | 88 | 6.4 | 14.5 | 0.00 | 0.00 | 0.00 | 62 | 1010.2 |
| 20260509145820 | 17 | 243 | 6.4 | 17.7 | 0.00 | 0.00 | 0.00 | 60 | 1010.2 |
| 20260509145342 | 17 | 240 | 6.4 | 17.7 | 0.00 | 0.00 | 0.00 | 62 | 1010.2 |
| 20260509144823 | 17 | 240 | 3.2 | 14.5 | 0.00 | 0.00 | 0.00 | 62 | 1010.1 |
| 20260509144327 | 17 | 208 | 6.4 | 11.3 | 0.00 | 0.00 | 0.00 | 61 | 1010.1 |
| 20260509143827 | 17 | 306 | 1.6 | 14.5 | 0.00 | 0.00 | 0.00 | 67 | 1010.1 |
| 20260509143309 | 16 | 139 | 4.8 | 14.5 | 0.00 | 0.00 | 0.00 | 66 | 1010.3 |
| 20260509142811 | 16 | 114 | 4.8 | 11.3 | 0.00 | 0.00 | 0.00 | 68 | 1010.0 |
| 20260509142333 | 16 | 101 | 6.4 | 16.1 | 0.00 | 0.00 | 0.00 | 68 | 1009.9 |
| 20260509141814 | 15 | 108 | 8.0 | 16.1 | 0.00 | 0.00 | 0.00 | 68 | 1010.1 |
| 20260509141314 | 15 | 123 | 6.4 | 9.7 | 0.00 | 0.00 | 0.00 | 70 | 1010.1 |
| 20260509140816 | 15 | 119 | 4.8 | 12.9 | 0.00 | 0.00 | 0.00 | 69 | 1010.1 |
| 20260509140319 | 15 | 117 | 6.4 | 12.9 | 0.00 | 0.00 | 0.00 | 70 | 1010.1 |
| 20260509135837 | 14 | 106 | 3.2 | 6.4 | 0.00 | 0.00 | 0.00 | 72 | 1010.2 |
| 20260509135318 | 13 | 84 | 3.2 | 9.7 | 0.00 | 0.00 | 0.00 | 75 | 1010.4 |
| 20260509134821 | 13 | 89 | 4.8 | 9.7 | 0.00 | 0.00 | 0.00 | 75 | 1010.5 |
| 20260509134322 | 13 | 136 | 3.2 | 6.4 | 0.00 | 0.00 | 0.00 | 80 | 1010.6 |
| 20260509133824 | 12 | 127 | 1.6 | 4.8 | 0.00 | 0.00 | 0.00 | 82 | 1010.7 |
| 20260509133344 | 12 | 162 | 1.6 | 4.8 | 0.00 | 0.00 | 0.00 | 81 | 1011.0 |
| 20260509132824 | 11 | 96 | 1.6 | 4.8 | 0.00 | 0.00 | 0.00 | 83 | 1011.1 |
| 20260509132346 | 10 | 94 | 1.6 | 6.4 | 0.00 | 0.00 | 0.00 | 83 | 1011.3 |
| 20260509131825 | 10 | 95 | 3.2 | 6.4 | 0.00 | 0.00 | 0.00 | 85 | 1011.3 |
| 20260509131327 | 10 | 103 | 0.0 | 1.6 | 0.00 | 0.00 | 0.00 | 85 | 1011.4 |
| 20260509130828 | 9 | 102 | 1.6 | 1.6 | 0.00 | 0.00 | 0.00 | 86 | 1011.5 |
| 20260509130309 | 8 | 99 | 0.0 | 3.2 | 0.00 | 0.00 | 0.00 | 87 | 1011.6 |
| 20260509125827 | 8 | 103 | 1.6 | 3.2 | 0.00 | 0.00 | 0.00 | 87 | 1011.7 |
| 20260509124849 | 8 | 96 | 0.0 | 3.2 | 0.00 | 0.00 | 0.00 | 88 | 1011.7 |
| 20260509124329 | 7 | 110 | 1.6 | 3.2 | 0.00 | 0.00 | 0.00 | 89 | 1011.7 |
| 20260509123811 | 7 | 101 | 1.6 | 3.2 | 0.00 | 0.00 | 0.00 | 88 | 1011.7 |
| 20260509123333 | 7 | 84 | 0.0 | 0.0 | 0.00 | 0.00 | 0.00 | 89 | 1011.8 |
| 20260509122814 | 7 | 116 | 0.0 | 1.6 | 0.00 | 0.00 | 0.00 | 90 | 1011.7 |
| 20260509122314 | 7 | 117 | 0.0 | 1.6 | 0.00 | 0.00 | 0.00 | 90 | 1011.7 |
| 20260509121836 | 6 | 117 | 0.0 | 3.2 | 0.00 | 0.00 | 0.00 | 90 | 1011.8 |
| 20260509121318 | 6 | 120 | 1.6 | 3.2 | 0.00 | 0.00 | 0.00 | 90 | 1011.7 |
| 20260509120840 | 6 | 89 | 0.0 | 1.6 | 0.00 | 0.00 | 0.00 | 92 | 1011.7 |
| 20260509120321 | 6 | 98 | 0.0 | 0.0 | 0.00 | 0.00 | 0.00 | 93 | 1011.7 |
| 20260509115821 | 6 | 98 | 0.0 | 0.0 | 0.00 | 0.00 | 0.00 | 93 | 1011.7 |
| 20260509115322 | 5 | 98 | 0.0 | 1.6 | 0.00 | 0.00 | 0.00 | 94 | 1011.8 |
| 20260509114826 | 5 | 98 | 0.0 | 1.6 | 0.00 | 0.00 | 0.00 | 94 | 1011.7 |
| 20260509114326 | 5 | 98 | 0.0 | 1.6 | 0.00 | 0.00 | 0.00 | 95 | 1011.8 |
| 20260509113809 | 5 | 98 | 0.0 | 1.6 | 0.00 | 0.00 | 0.00 | 95 | 1011.8 |
| 20260509113311 | 5 | 97 | 0.0 | 0.0 | 0.00 | 0.00 | 0.00 | 96 | 1011.7 |
| 20260509112834 | 4 | 97 | 0.0 | 0.0 | 0.00 | 0.00 | 0.00 | 96 | 1011.6 |
| 20260509112334 | 4 | 97 | 0.0 | 0.0 | 0.00 | 0.00 | 0.00 | 96 | 1011.6 |
| 20260509111814 | 4 | 97 | 0.0 | 1.6 | 0.00 | 0.00 | 0.00 | 96 | 1011.6 |
| 20260509111315 | 3 | 100 | 0.0 | 1.6 | 0.00 | 0.00 | 0.00 | 96 | 1011.6 |
| 20260509110818 | 3 | 91 | 0.0 | 0.0 | 0.00 | 0.00 | 0.00 | 96 | 1011.6 |
| 20260509110341 | 3 | 91 | 0.0 | 0.0 | 0.00 | 0.00 | 0.00 | 97 | 1011.6 |
| 20260509105842 | 3 | 91 | 0.0 | 0.0 | 0.00 | 0.00 | 0.00 | 97 | 1011.6 |
| 20260509105322 | 3 | 91 | 0.0 | 0.0 | 0.00 | 0.00 | 0.00 | 97 | 1011.6 |
| 20260509104824 | 3 | 95 | 0.0 | 0.0 | 0.00 | 0.00 | 0.00 | 97 | 1011.6 |
| 20260509104323 | 3 | 94 | 0.0 | 0.0 | 0.00 | 0.00 | 0.00 | 96 | 1011.5 |
| 20260509103846 | 3 | 94 | 0.0 | 0.0 | 0.00 | 0.00 | 0.00 | 96 | 1011.4 |
| 20260509103346 | 3 | 94 | 0.0 | 1.6 | 0.00 | 0.00 | 0.00 | 96 | 1011.4 |
| 20260509102827 | 3 | 94 | 0.0 | 1.6 | 0.00 | 0.00 | 0.00 | 96 | 1011.5 |
| 20260509102329 | 3 | 93 | 0.0 | 0.0 | 0.00 | 0.00 | 0.00 | 96 | 1011.5 |
| 20260509101810 | 3 | 92 | 0.0 | 0.0 | 0.00 | 0.00 | 0.00 | 96 | 1011.6 |
| 20260509101333 | 3 | 92 | 0.0 | 0.0 | 0.00 | 0.00 | 0.00 | 96 | 1011.7 |
| 20260509100814 | 3 | 92 | 0.0 | 1.6 | 0.00 | 0.00 | 0.00 | 96 | 1011.6 |
| 20260509100313 | 3 | 89 | 0.0 | 0.0 | 0.00 | 0.00 | 0.00 | 96 | 1011.7 |
| 20260509095813 | 3 | 80 | 0.0 | 0.0 | 0.00 | 0.00 | 0.00 | 96 | 1011.6 |
| 20260509095315 | 3 | 99 | 0.0 | 0.0 | 0.00 | 0.00 | 0.00 | 96 | 1011.6 |
| 20260509094817 | 3 | 99 | 0.0 | 1.6 | 0.00 | 0.00 | 0.00 | 97 | 1011.6 |
| 20260509094319 | 3 | 104 | 0.0 | 1.6 | 0.00 | 0.00 | 0.00 | 96 | 1011.6 |
| 20260509093820 | 3 | 103 | 0.0 | 0.0 | 0.00 | 0.00 | 0.00 | 96 | 1011.7 |
| 20260509093321 | 3 | 91 | 0.0 | 0.0 | 0.00 | 0.00 | 0.00 | 96 | 1011.6 |
| 20260509092822 | 3 | 91 | 0.0 | 0.0 | 0.00 | 0.00 | 0.00 | 96 | 1011.6 |
| 20260509092322 | 3 | 91 | 0.0 | 0.0 | 0.00 | 0.00 | 0.00 | 96 | 1011.6 |
| 20260509091823 | 3 | 91 | 0.0 | 0.0 | 0.00 | 0.00 | 0.00 | 96 | 1011.7 |
| 20260509091346 | 3 | 91 | 0.0 | 0.0 | 0.00 | 0.00 | 0.00 | 95 | 1011.7 |
| 20260509090828 | 3 | 91 | 0.0 | 0.0 | 0.00 | 0.00 | 0.00 | 95 | 1011.7 |
| 20260509090329 | 3 | 91 | 0.0 | 1.6 | 0.00 | 0.00 | 0.00 | 94 | 1011.8 |
| 20260509085810 | 3 | 94 | 0.0 | 1.6 | 0.00 | 0.00 | 0.00 | 93 | 1011.8 |
| 20260509085311 | 4 | 252 | 0.0 | 0.0 | 0.00 | 0.00 | 0.00 | 94 | 1011.8 |
| 20260509084812 | 4 | 252 | 0.0 | 0.0 | 0.00 | 0.00 | 0.00 | 94 | 1011.8 |
| 20260509084336 | 4 | 252 | 0.0 | 0.0 | 0.00 | 0.00 | 0.00 | 94 | 1011.7 |
| 20260509083816 | 4 | 252 | 0.0 | 0.0 | 0.00 | 0.00 | 0.00 | 94 | 1011.8 |
| 20260509083319 | 4 | 249 | 0.0 | 0.0 | 0.00 | 0.00 | 0.00 | 94 | 1011.8 |
| 20260509082822 | 4 | 250 | 0.0 | 0.0 | 0.00 | 0.00 | 0.00 | 94 | 1011.8 |
| 20260509082324 | 4 | 280 | 0.0 | 0.0 | 0.00 | 0.00 | 0.00 | 93 | 1011.8 |